Location: Nelson
(41.2830°S, 173.2830°E)
Time: 08:07:28
(UTC+13:00)

CZ-2D R/B - Pass Details

Date: 24 January 2019
Orbit: 523 x 538 km, 97.4° (Epoch: 16 October)

Event Time Altitude Azimuth Distance (km) Brightness Sun altitude
Rises 21:27:10 0° 169° (S) 2,734 7.2 -6.1°
Reaches altitude 10° 21:29:19 10° 169° (S) 1,834 6.3 -6.4°
Maximum altitude 21:33:17 84° 255° (WSW) 557 3.4 -7.0°
Drops below altitude 10° 21:37:13 10° 345° (NNW) 1,808 5.8 -7.6°
Sets 21:39:18 0° 345° (NNW) 2,691 6.6 -8.0°
